Air Quality Table

TIMESTAMP NO2 SO2 PM10 PM2.5 CO TEMP HUM AIRPRES WS WD NO BENZENE
2021-06-18 12:00 31.96 ug/m3 0.13 ug/m3 21.81 ug/m3 13.15 ug/m3 0.26 mg/m3 26.12 C 53.24 % 1,018.26 mbar 2.17 m/s 146.63 Deg 19.16 ug/m3 0.94 ug/m3
2021-06-18 11:00 33.14 ug/m3 0.16 ug/m3 25.54 ug/m3 17.83 ug/m3 0.33 mg/m3 26.01 C 54.28 % 1,018.39 mbar 1.99 m/s 131.08 Deg 21.98 ug/m3 1.1 ug/m3
2021-06-18 10:00 49.89 ug/m3 0.35 ug/m3 23.64 ug/m3 26.13 ug/m3 0.37 mg/m3 25.45 C 55 % 1,018.50 mbar 2.01 m/s 95.37 Deg 32.96 ug/m3 1.05 ug/m3
2021-06-18 09:00 42.24 ug/m3 0.34 ug/m3 23.98 ug/m3 14.94 ug/m3 0.39 mg/m3 24.44 C 61.11 % 1,018.51 mbar 1.94 m/s 49.76 Deg 31.43 ug/m3 0.98 ug/m3
2021-06-18 08:00 48.02 ug/m3 0.51 ug/m3 40.08 ug/m3 16.53 ug/m3 0.41 mg/m3 23.35 C 69.22 % N/A 1.65 m/s 49.03 Deg 37 ug/m3 2.86 ug/m3
2021-06-18 07:00 45.44 ug/m3 0.26 ug/m3 35.03 ug/m3 27.28 ug/m3 0.44 mg/m3 22.97 C 70.58 % N/A 1.05 m/s 143.95 Deg 28.26 ug/m3 0.98 ug/m3
2021-06-18 06:00 34.45 ug/m3 0.07 ug/m3 29.52 ug/m3 5.83 ug/m3 0.3 mg/m3 22.52 C 71.56 % N/A 0.73 m/s 153.73 Deg 14.15 ug/m3 0.94 ug/m3
2021-06-18 05:00 28.32 ug/m3 0.03 ug/m3 14.94 ug/m3 5.63 ug/m3 0.21 mg/m3 22.18 C 72.94 % N/A 0.62 m/s 143.84 Deg 8.07 ug/m3 1.34 ug/m3
2021-06-18 04:00 14.9 ug/m3 -0.01 ug/m3 14.04 ug/m3 4.72 ug/m3 0.17 mg/m3 22.33 C 72.43 % N/A 0.7 m/s 123.52 Deg 6.63 ug/m3 1.54 ug/m3
2021-06-18 03:00 6.87 ug/m3 -0.13 ug/m3 14.48 ug/m3 8.16 ug/m3 0.09 mg/m3 22.51 C 71.49 % N/A 1.04 m/s 192.7 Deg -0.43 ug/m3 0.26 ug/m3
2021-06-18 02:00 6.45 ug/m3 -0.13 ug/m3 21.94 ug/m3 9.35 ug/m3 0.12 mg/m3 22.62 C 70.63 % N/A 1.08 m/s 206.2 Deg 0.2 ug/m3 0.23 ug/m3
2021-06-18 01:00 14.15 ug/m3 -0.1 ug/m3 20.22 ug/m3 10.3 ug/m3 0.13 mg/m3 22.58 C 70.74 % N/A 0.98 m/s 200.9 Deg 1.39 ug/m3 0.34 ug/m3
2021-06-18 00:00 25.59 ug/m3 -0.04 ug/m3 26.09 ug/m3 10.47 ug/m3 0.18 mg/m3 22.64 C 70.18 % N/A 1.79 m/s 168.07 Deg 4.42 ug/m3 1.63 ug/m3
2021-06-17 23:00 35.04 ug/m3 0.11 ug/m3 31.9 ug/m3 18.16 ug/m3 0.26 mg/m3 22.93 C 66.75 % N/A 1.44 m/s 107.6 Deg 11.66 ug/m3 0.65 ug/m3
2021-06-17 22:00 18.71 ug/m3 0.03 ug/m3 32.93 ug/m3 8.97 ug/m3 0.24 mg/m3 22.82 C 67.59 % N/A 0.94 m/s 104.28 Deg 10.07 ug/m3 0.44 ug/m3
2021-06-17 21:00 12.13 ug/m3 -0.05 ug/m3 32.52 ug/m3 17.94 ug/m3 0.17 mg/m3 22.98 C 66.57 % N/A 1.03 m/s 201.83 Deg 2.21 ug/m3 0.47 ug/m3
2021-06-17 20:00 21.96 ug/m3 0.05 ug/m3 29.49 ug/m3 7.31 ug/m3 0.29 mg/m3 23.24 C 64.79 % N/A 1.3 m/s 148.65 Deg 10.82 ug/m3 0.42 ug/m3
2021-06-17 19:00 21.55 ug/m3 0.04 ug/m3 16.3 ug/m3 11.24 ug/m3 0.25 mg/m3 24 C 59.7 % N/A 1.59 m/s 154.38 Deg 10.27 ug/m3 0.47 ug/m3
2021-06-17 18:00 22.84 ug/m3 0.06 ug/m3 19 ug/m3 12.62 ug/m3 0.25 mg/m3 24.83 C 56.05 % N/A 1.87 m/s 168.05 Deg 12.19 ug/m3 0.66 ug/m3
2021-06-17 17:00 18.71 ug/m3 0.05 ug/m3 36.06 ug/m3 10.56 ug/m3 0.25 mg/m3 25.27 C 53.97 % N/A 2.11 m/s 175.68 Deg 8.78 ug/m3 1.03 ug/m3
2021-06-17 16:00 14.13 ug/m3 -0.03 ug/m3 30.59 ug/m3 6.12 ug/m3 0.18 mg/m3 25.27 C 52.67 % N/A 2.46 m/s 177.87 Deg 5.13 ug/m3 0.55 ug/m3
2021-06-17 15:00 18.81 ug/m3 0.02 ug/m3 18.71 ug/m3 10.79 ug/m3 0.25 mg/m3 25.45 C 52.23 % N/A 2.3 m/s 157.4 Deg 10.86 ug/m3 0.71 ug/m3

It is to be noted that the data is provisional and subject to quality assurance procedures. For validated data kindly refer your request to contact.air@era.org.mt